[[{"header":{"parameterUnit":"m.s-1","parameterCategory":1,"la1":30.2991,"la2":30.254,"lo1":-89.0895,"lo2":-89.0444,"dy":0.0017,"dx":0.0017,"nx":28,"ny":28,"refTime":"2024-04-28T21:00:00:Z","depth":0,"parameterNumber":2,"parameterNumberName":"U-component_of_WINDS"},"data":[0,0,0,0,0,0,0,0,0,0,0,0,0,0,0,0,0,0,0,0,0,0,0,0,0,0,0,0,0,0,0,0,0,0,0,0,0,0,0,0,0,0,0,0,0,0,0,0,0,0,0,0,0,0,0,0,0,0,-2.3883,-2.3884,0,-2.3957,-2.3958,-2.3959,-2.3976,-2.3976,-2.3975,-2.3975,-2.4052,-2.4055,-2.4057,0,0,0,0,0,0,0,0,0,0,0,0,0,-2.3759,-2.3761,-2.3883,-2.3884,-2.3885,-2.3957,-2.3958,-2.3959,-2.3976,-2.3976,-2.3975,-2.3974,-2.4051,-2.4054,-2.4058,0,0,0,0,0,0,0,0,0,0,0,0,0,-2.3821,-2.3762,-2.3883,-2.3902,-2.3905,-2.3957,-2.3958,-2.3959,-2.3976,-2.3976,-2.3975,-2.3974,-2.405,-2.4054,-2.4058,-2.4097,0,0,-2.407,-2.4071,0,0,0,0,0,0,0,0,-2.3817,-2.3825,-2.3898,-2.3901,-2.3904,-2.3957,-2.3943,-2.4005,-2.3977,-2.3949,-2.3975,-2.3974,-2.4021,-2.4027,-2.4043,-2.41,-2.4104,-2.407,-2.4072,-2.4074,-2.4075,0,0,0,0,0,0,0,-2.3813,-2.3822,-2.3912,-2.3899,-2.3903,-2.3908,-2.3916,-2.3955,-2.3989,-2.3952,-2.3953,-2.3961,-2.4023,-2.4039,-2.4045,-2.4105,-2.407,-2.4073,-2.4076,-2.4077,-2.4198,-2.4199,0,0,0,0,0,0,-2.3805,-2.3819,-2.391,-2.3915,-2.3858,-2.3911,-2.392,-2.394,-2.3988,-2.3995,-2.3962,-2.3962,-2.4033,-2.404,-2.4048,-2.4096,-2.4074,-2.4077,-2.408,-2.4197,-2.4198,-2.4199,0,0,0,0,0,0,-2.3802,-2.3813,-2.3907,-2.3867,-2.3879,-2.3914,-2.3937,-2.3942,-2.3959,-2.3996,-2.4002,-2.3973,-2.4033,-2.4042,-2.4084,-2.4099,-2.4079,-2.4083,-2.4196,-2.4197,-2.4198,-2.4192,0,0,0,0,0,0,-2.3799,-2.3812,-2.3826,-2.3867,-2.3881,-2.3941,-2.3938,-2.3944,-2.3965,-2.3966,-2.4008,-2.4014,-2.4033,-2.4078,-2.4088,-2.4104,-2.4086,-2.4195,-2.4196,-2.4198,-2.4191,-2.4193,-2.4195,0,0,0,0,0,-2.3794,-2.3822,-2.3827,-2.3838,-2.39,-2.3942,-2.395,-2.3971,-2.3966,-2.3981,-2.4005,-2.4013,-2.4096,-2.4083,-2.4094,-2.411,-2.4194,-2.4196,-2.4198,-2.4191,-2.4193,-2.4195,0,0,0,0,0,0,-2.3783,-2.3828,-2.3834,-2.3875,-2.3905,-2.3945,-2.3965,-2.3973,-2.4005,-2.4004,-2.4029,-2.4039,-2.4079,-2.4099,-2.4084,-2.4151,-2.4145,-2.4149,-2.4135,-2.4138,-2.414,-2.4134,-2.4089,0,0,0,0,0,-2.3785,-2.3815,-2.3853,-2.3886,-2.3901,-2.393,-2.3949,-2.3963,-2.3994,-2.4007,-2.4034,-2.4065,-2.4098,-2.412,-2.4152,-2.4195,-2.4204,-2.4212,-2.4214,-2.4215,-2.4218,-2.4242,-2.4246,-2.4206,-2.4206,-2.4206,0,0,-2.379,-2.3818,-2.3836,-2.3885,-2.3909,-2.394,-2.394,-2.3973,-2.3996,-2.4012,-2.4053,-2.4074,-2.4111,-2.4153,-2.4173,-2.4171,-2.4232,-2.4218,-2.4219,-2.4221,-2.4245,-2.4249,-2.4252,-2.4207,-2.4207,-2.4207,0,0,-2.3815,-2.3839,-2.3869,-2.3894,-2.393,-2.395,-2.3957,-2.3996,-2.4011,-2.4052,-2.4065,-2.4093,-2.415,-2.4175,-2.4196,-2.4231,-2.4238,-2.4241,-2.425,-2.4273,-2.4276,-2.4279,-2.4291,-2.4295,-2.4244,-2.4244,-2.4244,0,-2.3816,-2.3862,-2.3884,-2.3916,-2.3937,-2.3953,-2.3984,-2.4007,-2.4052,-2.4067,-2.4064,-2.4136,-2.4161,-2.421,-2.4218,-2.4234,-2.4244,-2.4235,-2.4274,-2.4277,-2.428,-2.4291,-2.4296,-2.4244,-2.4244,-2.4244,-2.4244,0,-2.3862,-2.3894,-2.3915,-2.3957,-2.3981,-2.4012,-2.4039,-2.4061,-2.4073,-2.4093,-2.4135,-2.4167,-2.4206,-2.4219,-2.4231,-2.4269,-2.4266,-2.4269,-2.4263,-2.4283,-2.4295,-2.4299,-2.4244,-2.4244,-2.4244,-2.4244,0,0,-2.3881,-2.3935,-2.3942,-2.3962,-2.4004,-2.4029,-2.4062,-2.4099,-2.4117,-2.4149,-2.4177,-2.4225,-2.4227,-2.425,-2.4265,-2.4286,-2.4311,-2.4285,-2.4287,-2.4288,-2.4354,-2.4352,-2.4356,-2.4317,-2.4318,-2.4319,-2.4351,0,-2.391,-2.3967,-2.3988,-2.4035,-2.4065,-2.4081,-2.4109,-2.4138,-2.4158,-2.4187,-2.421,-2.4243,-2.4244,-2.4258,-2.4279,-2.4303,-2.4324,-2.4301,-2.4343,-2.4344,-2.4332,-2.4362,-2.436,-2.4389,-2.4356,-2.4356,-2.4357,0,-2.3951,-2.3982,-2.4032,-2.407,-2.4083,-2.4108,-2.4145,-2.4172,-2.4206,-2.4219,-2.4245,-2.4259,-2.4294,-2.4288,-2.4337,-2.4321,-2.4339,-2.4354,-2.4356,-2.4359,-2.4351,-2.4366,-2.4399,-2.4402,-2.4364,-2.4364,-2.4363,0,-2.3958,-2.4013,-2.405,-2.4066,-2.4112,-2.4129,-2.4149,-2.4182,-2.4203,-2.4236,-2.425,-2.4286,-2.4306,-2.4334,-2.4357,-2.4351,-2.4404,-2.44,-2.4416,-2.4416,-2.4426,-2.4425,-2.4461,-2.444,-2.4439,-2.4439,-2.4439,0,-2.3988,-2.4018,-2.4053,-2.4076,-2.411,-2.4134,-2.4168,-2.4189,-2.4218,-2.4246,-2.4262,-2.4288,-2.4318,-2.4348,-2.4367,-2.4405,-2.4414,-2.4426,-2.443,-2.4423,-2.4422,-2.4435,-2.4433,-2.4441,-2.444,-2.444,-2.444,0,-2.4001,-2.4026,-2.4067,-2.4107,-2.4118,-2.4141,-2.4176,-2.4199,-2.422,-2.4254,-2.4264,-2.4297,-2.4333,-2.436,-2.4407,-2.442,-2.4459,-2.4465,-2.4447,-2.4449,-2.4464,-2.4462,-2.4509,-2.4516,-2.4491,-2.4491,-2.4492,0,-2.4018,-2.4041,-2.4083,-2.4102,-2.4122,-2.4153,-2.4175,-2.42,-2.4222,-2.4262,-2.428,-2.4317,-2.4348,-2.4405,-2.4434,-2.447,-2.4475,-2.449,-2.4481,-2.4473,-2.4475,-2.4472,-2.4475,-2.449,-2.449,-2.449,-2.4491,0,-2.4045,-2.4056,-2.4086,-2.4121,-2.4146,-2.4175,-2.4204,-2.4219,-2.4249,-2.4274,-2.431,-2.4334,-2.4382,-2.4418,-2.4457,-2.4479,-2.449,-2.4493,-2.4499,-2.4492,-2.448,-2.4486,-2.445,-2.4492,-2.4492,-2.4492,-2.4491,-2.4491,-2.406,-2.4081,-2.4114,-2.4147,-2.4171,-2.4198,-2.4221,-2.4245,-2.4276,-2.4316,-2.4329,-2.4367,-2.4401,-2.4454,-2.4476,-2.4506,-2.4506,-2.4515,-2.4517,-2.4518,-2.4517,-2.4476,-2.4514,-2.4514,-2.4514,-2.4514,-2.4514,0,-2.4087,-2.4109,-2.4139,-2.4179,-2.4205,-2.4213,-2.4245,-2.4267,-2.43,-2.433,-2.436,-2.4402,-2.4437,-2.4469,-2.4506,-2.4525,-2.4531,-2.4533,-2.4532,-2.4537,-2.4515,-2.4506,-2.4528,-2.4528,-2.4528,-2.4528,-2.4528,-2.4528,-2.4104,-2.414,-2.4155,-2.4204,-2.4226,-2.4262,-2.428,-2.4305,-2.4329,-2.4375,-2.4404,-2.4424,-2.4456,-2.4495,-2.4528,-2.4537,-2.455,-2.4551,-2.4561,-2.454,-2.4538,-2.4536,-2.4528,-2.4554,-2.4554,-2.4579,-2.458,-2.458]},{"header":{"parameterUnit":"m.s-1","parameterCategory":1,"la1":30.2991,"la2":30.254,"lo1":-89.0895,"lo2":-89.0444,"dy":0.0017,"dx":0.0017,"nx":28,"ny":28,"refTime":"2024-04-28T21:00:00:Z","depth":0,"parameterNumber":3,"parameterNumberName":"V-component_of_WINDS"},"data":[0,0,0,0,0,0,0,0,0,0,0,0,0,0,0,0,0,0,0,0,0,0,0,0,0,0,0,0,0,0,0,0,0,0,0,0,0,0,0,0,0,0,0,0,0,0,0,0,0,0,0,0,0,0,0,0,0,0,5.592,5.5921,0,5.6004,5.6005,5.6006,5.5957,5.5955,5.5953,5.595,5.6033,5.6037,5.6042,0,0,0,0,0,0,0,0,0,0,0,0,0,5.5713,5.5717,5.592,5.5921,5.5922,5.6004,5.6005,5.6006,5.5958,5.5955,5.5952,5.5949,5.6031,5.6037,5.6042,0,0,0,0,0,0,0,0,0,0,0,0,0,5.58,5.5718,5.592,5.5908,5.5907,5.6004,5.6005,5.6007,5.5958,5.5955,5.5951,5.5948,5.603,5.6036,5.6043,5.6154,0,0,5.6063,5.6066,0,0,0,0,0,0,0,0,5.5796,5.5808,5.5908,5.5909,5.5909,5.5967,5.5962,5.6056,5.5959,5.5939,5.595,5.5946,5.6014,5.6021,5.6045,5.6158,5.6162,5.6063,5.6067,5.607,5.6072,0,0,0,0,0,0,0,5.579,5.5804,5.5953,5.591,5.591,5.5897,5.5905,5.598,5.5995,5.594,5.5937,5.5948,5.6013,5.6038,5.6046,5.6163,5.6063,5.6069,5.6073,5.6076,5.6373,5.6376,0,0,0,0,0,0,5.5785,5.5799,5.595,5.5956,5.5842,5.5904,5.5913,5.5952,5.5994,5.5997,5.5951,5.5945,5.6029,5.6039,5.6049,5.6183,5.607,5.6076,5.608,5.6369,5.6374,5.6378,0,0,0,0,0,0,5.5781,5.5799,5.5947,5.5877,5.5895,5.5911,5.5955,5.5955,5.5981,5.6002,5.6004,5.5975,5.6027,5.604,5.6129,5.6185,5.6079,5.6085,5.6364,5.637,5.6376,5.6452,0,0,0,0,0,0,5.5775,5.5798,5.5841,5.5878,5.5899,5.6027,5.5958,5.5959,5.5993,5.5986,5.6025,5.6028,5.6025,5.6119,5.6136,5.6192,5.609,5.6359,5.6367,5.6374,5.6444,5.6459,5.6472,0,0,0,0,0,5.5768,5.5858,5.5843,5.5862,5.5954,5.603,5.6042,5.6038,5.5998,5.6041,5.6055,5.6027,5.6176,5.6129,5.6147,5.6206,5.6356,5.6365,5.6373,5.6438,5.6456,5.6472,0,0,0,0,0,0,5.5825,5.5863,5.5847,5.5952,5.5989,5.6022,5.6076,5.6057,5.6105,5.6097,5.6088,5.6097,5.619,5.6207,5.6153,5.6317,5.626,5.6272,5.6303,5.632,5.6334,5.6328,5.6096,0,0,0,0,0,5.5851,5.5911,5.594,5.603,5.6049,5.606,5.6093,5.6087,5.6124,5.6138,5.6159,5.6194,5.6249,5.6286,5.6338,5.6446,5.6454,5.6496,5.651,5.6522,5.6533,5.6592,5.6611,5.6407,5.6407,5.6407,0,0,5.5903,5.5931,5.5969,5.6042,5.607,5.6132,5.6073,5.6141,5.6186,5.6148,5.6234,5.625,5.6289,5.6389,5.6434,5.6406,5.6591,5.6533,5.6542,5.6547,5.6603,5.6622,5.6639,5.6413,5.6412,5.6411,0,0,5.603,5.6058,5.6136,5.6165,5.6208,5.6215,5.6234,5.627,5.628,5.6366,5.6339,5.6392,5.6488,5.6517,5.6544,5.6683,5.6659,5.67,5.6774,5.6832,5.6848,5.6862,5.6912,5.6929,5.6711,5.6711,5.6712,0,5.6089,5.6183,5.6178,5.6249,5.6282,5.6252,5.633,5.6358,5.6415,5.6438,5.6406,5.6526,5.655,5.6656,5.669,5.6713,5.6734,5.6696,5.6846,5.686,5.6873,5.6921,5.6939,5.6716,5.6716,5.6715,5.6715,0,5.6254,5.6319,5.6377,5.6435,5.6474,5.6548,5.6554,5.6594,5.6584,5.6594,5.6682,5.6711,5.6768,5.6793,5.6783,5.6898,5.6879,5.6847,5.6789,5.6898,5.6942,5.696,5.6723,5.6721,5.672,5.6719,0,0,5.6419,5.6474,5.6496,5.6522,5.6567,5.6617,5.6689,5.6747,5.6782,5.6822,5.6882,5.6964,5.6935,5.6966,5.6959,5.701,5.7119,5.6971,5.6972,5.6998,5.7247,5.7271,5.7292,5.7103,5.7107,5.7109,5.7243,0,5.6549,5.6678,5.6676,5.6795,5.6855,5.6827,5.6891,5.6925,5.6936,5.6987,5.6999,5.7057,5.7014,5.7033,5.7082,5.7095,5.7169,5.7085,5.7158,5.7161,5.715,5.7315,5.7341,5.7466,5.7261,5.7264,5.7266,0,5.6718,5.6766,5.6892,5.6929,5.6954,5.7011,5.7064,5.7114,5.7152,5.7156,5.7192,5.7178,5.725,5.7191,5.7291,5.7234,5.7264,5.7275,5.728,5.7287,5.722,5.7326,5.7506,5.7525,5.7293,5.7291,5.7289,0,5.6827,5.6923,5.701,5.7033,5.7079,5.7119,5.714,5.7175,5.721,5.7255,5.7278,5.7331,5.736,5.7401,5.7401,5.7358,5.7502,5.7443,5.7507,5.7507,5.7539,5.7537,5.7726,5.7558,5.7558,5.7557,5.7557,0,5.6973,5.705,5.706,5.7113,5.7199,5.7196,5.7281,5.7297,5.7329,5.7384,5.7363,5.7416,5.7413,5.7466,5.7467,5.7549,5.7562,5.7567,5.7567,5.757,5.7569,5.7589,5.758,5.7562,5.7561,5.756,5.7559,0,5.7109,5.7118,5.7212,5.7248,5.7258,5.732,5.735,5.7401,5.741,5.7481,5.7498,5.7512,5.7573,5.7578,5.7648,5.7649,5.7749,5.7739,5.7737,5.7735,5.78,5.7794,5.8008,5.8036,5.785,5.7852,5.7853,0,5.7201,5.7261,5.7304,5.734,5.7364,5.7423,5.7459,5.7457,5.7495,5.7544,5.7588,5.7648,5.7696,5.7795,5.7811,5.7865,5.7855,5.7927,5.7863,5.7864,5.7857,5.7853,5.7859,5.7939,5.7941,5.7943,5.7944,0,5.7365,5.7366,5.742,5.7475,5.7519,5.7562,5.7603,5.7633,5.7637,5.7681,5.7744,5.7781,5.7854,5.7913,5.7966,5.7986,5.7966,5.7964,5.7982,5.7986,5.7982,5.7985,5.7771,5.7959,5.7958,5.7957,5.7956,5.7955,5.7482,5.7534,5.7572,5.7632,5.7663,5.7701,5.7751,5.7767,5.782,5.7881,5.7876,5.7946,5.7982,5.8052,5.8076,5.813,5.8105,5.8131,5.8138,5.8144,5.8151,5.7974,5.8139,5.8139,5.8138,5.8138,5.8138,0,5.7644,5.7668,5.7724,5.7781,5.7829,5.7807,5.7851,5.7891,5.7954,5.799,5.8038,5.811,5.8168,5.8189,5.8245,5.8284,5.8276,5.8299,5.8296,5.8301,5.8169,5.8149,5.8304,5.8304,5.8304,5.8304,5.8304,5.8304,5.7735,5.7821,5.7828,5.7929,5.7952,5.8021,5.8048,5.8083,5.8112,5.8195,5.8243,5.8257,5.8287,5.8345,5.8397,5.8401,5.8423,5.8449,5.845,5.8327,5.831,5.8294,5.8274,5.8454,5.8454,5.8577,5.8578,5.8579]}]]